Weather in Vuktyl

Russia / Komi Republic     63°50′39″N   57°17′59″E
temp.,
°C
wind,
m/s
gust,
m/s
humid.,
%
clouds,
%
prec.,
mm/h
press.,
hPa
HPBL,
m
20 april, tue
tue2000:000w31273100 0.0 1029390
03:00−1w31177100 0.0 1029364
06:00+1wnw41270100 0.0 1028518
09:00+5wnw595899 0.0 1028781
12:00+7nw585584 0.0 10281153
15:00+8nw486089 0.0 10281275
18:00+3wnw118866 0.0 102813
21:00−1sw119511 0.0 102910
21 april, wed
wed2100:00−1ssw11978 0.0 103010
03:00−1s009714 0.0 103110
06:00+3s11825 0.0 103182
09:00+7sw12664 0.0 1031510
12:00+9ssw22553 0.0 1030969
15:00+10s23505 0.0 10291109
18:00+7sse266996 0.0 1028156
21:00+4se377995 0.0 1028128
22 april, thu
thu2200:00+4sse31281100 0.0 1027272
03:00+4sse41379100 0.0 1026358
06:00+6sse51468100 0.0 1025622
09:00+9s61353100 0.0 10241027
12:00+11s6134497 0.0 10221551
15:00+11s61344100 0.0 10221638
18:00+8ssw5126495 0.0 10221408
21:00+6sw41089100 0.6 10221200
23 april, fri
fri2300:00+5ssw4989100 0.1 1022784
03:00+5s41097100 0.5 10221043
06:00+5ssw51092100 0.1 10221054
09:00+5ssw5108287 0.2 1022888
12:00+7ssw51071100 0.0 10221151
15:00+7ssw51074100 0.1 10231016
18:00+7ssw41084100 0.2 1023672
21:00+7ssw4108597 0.4 1024505
24 april, sat
sat2400:00+5ssw379335 0.1 1025236
03:00+3ssw24967 0.1 102694
06:00+5s248916 0.0 1026190
09:00+10ssw34675 0.0 1025645
12:00+13sw22487 0.0 10241450
15:00+14s124224 0.0 10231671
18:00+11se36584 0.0 1022370
21:00+7se26783 0.0 1022148